Weather History for Phuket, Thailand

Change the Weather History Date:

Friday, February 10, 2012

  Actual Average Record
Temperature  
Mean Temperature 82 °F -  
Max Temperature 91 °F 91 °F 98 °F (2003)
Min Temperature 74 °F 75 °F 66 °F (2014)
Cooling Degree Days 18    
Growing Degree Days 32 (Base 50)    
Moisture  
Dew Point 70 °F    
Average Humidity 67    
Maximum Humidity 94    
Minimum Humidity 43    
Precipitation  
Precipitation 0.00 in 0.05 in - ()
Sea Level Pressure  
Sea Level Pressure 29.83 in    
Wind  
Wind Speed 7 mph ()    
Max Wind Speed 15 mph    
Max Gust Speed 31 mph    
Visibility 5.4 miles    
Events      
Averages and records for this station are not official NWS values.
T = Trace of Precipitation, MM = Missing Value Source: Averaged Metar Reports

Daily Weather History Graph

Daily Weather History Graph

Search for Another Location

Airport:

Trip Planner

Search our weather history database for the weather conditions in past years. The results will help you decide how hot, cold, wet, or windy it might be!

Date:

Astronomy

Feb. 10, 2012 Rise Set
Actual Time 6:46 AM ICT 6:36 PM ICT
Civil Twilight 6:24 AM ICT 6:57 PM ICT
Nautical Twilight 5:59 AM ICT 7:22 PM ICT
Astronomical Twilight 5:34 AM ICT 7:47 PM ICT
Moon 8:48 PM ICT (2/10) 8:19 AM ICT (2/10)
Length of Visible Light 12h 33m
Length of Day
11h 50m
Waning Gibbous, 93% of the Moon is Illuminated
Feb 10
Waning Gibbous
Feb 15
Last Quarter
Feb 22
New
Mar 1
First Quarter
Mar 8
Full

Hourly Weather History & Observations

Time (ICT) Temp. Heat Index Dew Point Humidity Pressure Visibility Wind Dir Wind Speed Gust Speed Precip Events Conditions
12:00 AM 80.6 °F 83.2 °F 68.0 °F 65% 29.86 in 5.0 mi East 15.0 mph - N/A   Scattered Clouds
1:00 AM 80 °F - 75 °F 79% 29.83 in 6 mi Calm Calm - -   Scattered Clouds
1:00 AM 80.6 °F 83.2 °F 68.0 °F 65% 29.86 in 5.0 mi ENE 10.4 mph - N/A   Scattered Clouds
1:30 AM 80.6 °F 83.2 °F 68.0 °F 65% 29.83 in 5.0 mi East 10.4 mph - N/A   Scattered Clouds
2:00 AM 78.8 °F - 68.0 °F 69% 29.83 in 5.0 mi East 10.4 mph - N/A   Scattered Clouds
3:00 AM 78.8 °F - 68.0 °F 69% 29.83 in 5.0 mi ENE 5.8 mph - N/A   Scattered Clouds
3:30 AM 78.8 °F - 68.0 °F 69% 29.80 in 5.0 mi NE 6.9 mph - N/A   Scattered Clouds
4:00 AM 78.8 °F - 68.0 °F 69% 29.80 in 5.0 mi NE 4.6 mph - N/A   Scattered Clouds
5:00 AM 77.0 °F - 69.8 °F 78% 29.80 in 5.0 mi East 6.9 mph - N/A   Scattered Clouds
5:30 AM 77.0 °F - 69.8 °F 78% 29.80 in 5.0 mi East 8.1 mph - N/A   Scattered Clouds
6:00 AM 77.0 °F - 69.8 °F 78% 10.09 in 5.0 mi East 6.9 mph - N/A   Scattered Clouds
6:30 AM 75.2 °F - 69.8 °F 83% 29.83 in 5.0 mi Calm Calm - N/A   Scattered Clouds
7:00 AM 76 °F - 71 °F 80% 29.81 in 6 mi Calm Calm - -   Mist
7:00 AM 75.2 °F - 69.8 °F 83% 29.83 in 5.0 mi Calm Calm - N/A   Scattered Clouds
7:30 AM 77.0 °F - 69.8 °F 78% 29.86 in 5.0 mi ENE 5.8 mph - N/A   Scattered Clouds
8:00 AM 78.8 °F - 69.8 °F 74% 29.86 in 5.6 mi ENE 6.9 mph - N/A   Scattered Clouds
8:30 AM 82.4 °F 86.3 °F 69.8 °F 66% 29.89 in 5.6 mi ENE 9.2 mph - N/A   Scattered Clouds
9:00 AM 82.4 °F 86.3 °F 69.8 °F 66% 29.89 in 5.6 mi ENE 9.2 mph - N/A   Scattered Clouds
9:30 AM 84.2 °F 88.4 °F 69.8 °F 62% 29.89 in 5.6 mi ENE 10.4 mph - N/A   Scattered Clouds
10:00 AM 84.2 °F 87.3 °F 68.0 °F 58% 29.89 in 5.6 mi East 12.7 mph - N/A   Scattered Clouds
10:30 AM 84.2 °F 88.4 °F 69.8 °F 62% 29.89 in 5.6 mi East 12.7 mph - N/A   Scattered Clouds
11:00 AM 86.0 °F 90.4 °F 69.8 °F 58% 29.89 in 5.6 mi East 11.5 mph - N/A   Scattered Clouds
11:30 AM 86.0 °F 90.4 °F 69.8 °F 58% 29.86 in 5.6 mi East 12.7 mph - N/A   Scattered Clouds
12:00 PM 87.8 °F 92.6 °F 69.8 °F 55% 29.86 in 5.6 mi ENE 13.8 mph - N/A   Scattered Clouds
12:30 PM 87.8 °F 91.4 °F 68.0 °F 52% 29.83 in 5.6 mi East 13.8 mph - N/A   Scattered Clouds
1:00 PM 88 °F - 70 °F 46% 29.83 in 6 mi East 9.2 mph - -   Haze
1:00 PM 87.8 °F 92.6 °F 69.8 °F 55% 29.83 in 5.6 mi East 13.8 mph - N/A   Scattered Clouds
1:30 PM 89.6 °F 93.4 °F 68.0 °F 49% 29.80 in 5.6 mi East 13.8 mph - N/A   Scattered Clouds
2:00 PM 89.6 °F 93.4 °F 68.0 °F 49% 29.80 in 5.6 mi East 12.7 mph - N/A   Scattered Clouds
2:30 PM 89.6 °F 93.4 °F 68.0 °F 49% 29.77 in 5.6 mi ENE 11.5 mph - N/A   Scattered Clouds
3:00 PM 91.4 °F 94.0 °F 66.2 °F 43% 29.77 in 5.6 mi East 11.5 mph - N/A   Scattered Clouds
3:30 PM 91.4 °F 94.0 °F 66.2 °F 43% 29.74 in 5.6 mi ENE 8.1 mph - N/A   Scattered Clouds
4:00 PM 91.4 °F 94.0 °F 66.2 °F 43% 29.74 in 5.6 mi ENE 10.4 mph - N/A   Scattered Clouds
4:30 PM 91.4 °F 94.0 °F 66.2 °F 43% 29.74 in 5.6 mi ENE 6.9 mph - N/A   Scattered Clouds
5:00 PM 87.8 °F 93.8 °F 71.6 °F 58% 29.77 in 5.6 mi WNW 10.4 mph - N/A   Scattered Clouds
5:30 PM 86.0 °F 91.8 °F 71.6 °F 62% 29.77 in 5.6 mi WNW 11.5 mph 31.1 mph N/A   Scattered Clouds
6:00 PM 84.2 °F 89.6 °F 71.6 °F 66% 29.80 in 5.6 mi WNW 10.4 mph - N/A   Mostly Cloudy
6:30 PM 84.2 °F 89.6 °F 71.6 °F 66% 29.80 in 5.6 mi WNW 8.1 mph - N/A   Mostly Cloudy
7:00 PM 85 °F - 73 °F 59% 29.78 in 6 mi Calm Calm - -   Mist
7:00 PM 84.2 °F 89.6 °F 71.6 °F 66% 29.80 in 5.6 mi WNW 6.9 mph - N/A   Mostly Cloudy
7:30 PM 82.4 °F 87.2 °F 71.6 °F 70% 29.83 in 5.6 mi WNW 4.6 mph - N/A   Mostly Cloudy
8:00 PM 82.4 °F 88.2 °F 73.4 °F 74% 29.83 in 5.6 mi Variable 1.2 mph - N/A   Mostly Cloudy
8:30 PM 80.6 °F 85.4 °F 73.4 °F 79% 29.83 in 5.6 mi Variable 1.2 mph - N/A   Mostly Cloudy
9:00 PM 78.8 °F - 75.2 °F 89% 29.86 in 5.6 mi Calm Calm - N/A   Mostly Cloudy
9:30 PM 77.0 °F - 75.2 °F 94% 29.86 in 5.6 mi Calm Calm - N/A   Mostly Cloudy
10:00 PM 77.0 °F - 75.2 °F 94% 29.86 in 5.6 mi Calm Calm - N/A   Scattered Clouds
10:30 PM 75.2 °F - 71.6 °F 89% 29.89 in 5.0 mi Calm Calm - N/A   Scattered Clouds
11:00 PM - - 71.6 °F N/A% 29.89 in - Calm Calm - N/A   Unknown
11:30 PM 75.2 °F - 71.6 °F 89% 29.89 in 5.0 mi Calm Calm - N/A   Scattered Clouds